Weather in Spasskaya Guba

Russia / Republic of Karelia     62°12′56″N   33°48′56″E
temp.,
°C
wind,
m/s
gust,
m/s
humid.,
%
clouds,
%
prec.,
mm/h
press.,
hPa
HPBL,
m
25 july, sun
sun2500:00+14wsw3957100 0.0 1013331
03:00+13w2465100 0.0 1014114
06:00+14wsw126454 0.0 101482
09:00+20sw23417 0.0 10141014
12:00+22w343363 0.0 10142384
15:00+24wnw353092 0.0 10142640
18:00+21wnw3741100 0.0 1014360
21:00+18wnw2561100 0.0 1016128
26 july, mon
mon2600:00+16w116694 0.0 101728
03:00+14wsw267711 0.0 1018107
06:00+16w286883 0.0 1018244
09:00+21nw365252 0.0 1018682
12:00+25nw483684 0.0 10182570
15:00+24nnw3644100 0.0 10181358
18:00+22nne135522 0.0 101886
21:00+18nne116660 0.0 101911
27 july, tue
tue2700:00+14w118254 0.0 102010
03:00+14ne118288 0.0 102113
06:00+15e1177100 0.0 102167
09:00+20e225851 0.0 1020565
12:00+24e22420 0.0 10201232
15:00+26ene243464 0.0 10182173
18:00+26sse123457 0.0 10171821
21:00+19ssw26674 0.0 1017129
28 july, wed
wed2800:00+15sse1190100 0.0 101711
03:00+14sw119453 0.0 101622
06:00+16sw26855 0.0 1014163
09:00+23wsw34522 0.1 1012573
12:00+28w243352 0.0 10102392
15:00+28wsw343356 0.0 10081915
18:00+23ese114559 0.0 100729
21:00+21sw125644 0.0 100620
29 july, thu
thu2900:00+18w116220 0.0 100513
03:00+16wsw116753 0.0 100315
06:00+17wsw1166100 0.0 100235
09:00+23sw3546100 0.0 1001533
12:00+18sw4989100 1.5 1000395
15:00+20ssw488846 3.9 998789
18:00+20sw51080100 1.3 996873
21:00+18sw4128881 2.0 995585